Weather History for Hobart, OK

Change the Weather History Date:

Friday, May 10, 2013

  Actual Average Record
Temperature  
Mean Temperature 63 °F -  
Max Temperature 72 °F 78 °F 95 °F (2014)
Min Temperature 53 °F 53 °F 44 °F (1997)
Degree Days  
Heating Degree Days 2    
Growing Degree Days 13 (Base 50)    
Moisture  
Dew Point 54 °F    
Average Humidity 77    
Maximum Humidity 94    
Minimum Humidity 49    
Precipitation  
Precipitation 0.07 in - - ()
Sea Level Pressure  
Sea Level Pressure 30.03 in    
Wind  
Wind Speed 10 mph (NNE)    
Max Wind Speed 17 mph    
Max Gust Speed 31 mph    
Visibility 9 miles    
Events Rain , Thunderstorm    
Averages and records for this station are not official NWS values.
T = Trace of Precipitation, MM = Missing Value Source: NWS Daily Summary

Daily Weather History Graph

Daily Weather History Graph

Search for Another Location

Airport:

Trip Planner

Search our weather history database for the weather conditions in past years. The results will help you decide how hot, cold, wet, or windy it might be!

Date:

Astronomy

May. 10, 2013 Rise Set
Actual Time 6:36 AM CDT 8:29 PM CDT
Civil Twilight 6:08 AM CDT 8:56 PM CDT
Nautical Twilight 5:35 AM CDT 9:30 PM CDT
Astronomical Twilight 4:59 AM CDT 10:06 PM CDT
Moon 7:02 AM CDT (5/10) 9:19 PM CDT (5/10)
Length of Visible Light 14h 48m
Length of Day
13h 52m
New Moon, 0% of the Moon is Illuminated
May 10
New Moon
May 17
First Quarter
May 24
Full
May 31
Last Quarter
Jun 8
New

Hourly Weather History & Observations

Time (CDT) Temp. Dew Point Humidity Pressure Visibility Wind Dir Wind Speed Gust Speed Precip Events Conditions
12:53 AM 60.1 °F 57.9 °F 93% 29.98 in 10.0 mi NNE 6.9 mph - N/A   Clear
1:53 AM 62.1 °F 60.1 °F 93% 29.98 in 8.0 mi NE 6.9 mph - N/A   Mostly Cloudy
2:02 AM 62.6 °F 60.8 °F 94% 30.01 in 8.0 mi NNE 4.6 mph - N/A Thunderstorm Mostly Cloudy
2:24 AM 60.8 °F 55.4 °F 82% 30.02 in 10.0 mi NNW 17.3 mph 31.1 mph 0.00 in Rain , Thunderstorm Light Thunderstorms and Rain
2:53 AM 57.2 °F 55.4 °F 94% 30.02 in 5.0 mi WNW 12.7 mph - N/A Rain , Thunderstorm Thunderstorms and Rain
3:07 AM 57.2 °F 55.4 °F 94% 30.02 in 10.0 mi WNW 9.2 mph - 0.01 in Rain , Thunderstorm Light Thunderstorms and Rain
3:53 AM 57.9 °F 55.0 °F 90% 29.97 in 9.0 mi NNE 3.5 mph - 0.05 in Rain Light Rain
4:53 AM 59.0 °F 55.9 °F 90% 29.88 in 10.0 mi ENE 15.0 mph 21.9 mph 0.02 in   Clear
5:32 AM 59.0 °F 55.4 °F 88% 29.99 in 10.0 mi NW 17.3 mph - N/A   Scattered Clouds
5:41 AM 59.0 °F 55.4 °F 88% 30.00 in 10.0 mi NW 16.1 mph - N/A   Mostly Cloudy
5:53 AM 59.0 °F 55.9 °F 90% 29.97 in 10.0 mi North 12.7 mph 20.7 mph N/A   Mostly Cloudy
6:04 AM 59.0 °F 55.4 °F 88% 30.00 in 10.0 mi NNE 11.5 mph - N/A   Scattered Clouds
6:53 AM 57.0 °F 55.0 °F 93% 30.01 in 8.0 mi North 9.2 mph - N/A   Clear
7:53 AM 57.2 °F 55.4 °F 94% 30.08 in 5.0 mi NNE 10.4 mph - N/A   Clear
8:53 AM 61.0 °F 55.0 °F 81% 30.07 in 9.0 mi NNE 17.3 mph - N/A   Clear
9:53 AM 63.0 °F 55.0 °F 75% 30.08 in 10.0 mi NNE 17.3 mph - N/A   Clear
10:53 AM 66.0 °F 54.0 °F 65% 30.07 in 10.0 mi North 15.0 mph - N/A   Scattered Clouds
11:53 AM 69.8 °F 53.6 °F 56% 30.10 in 10.0 mi NNE 13.8 mph 21.9 mph N/A   Partly Cloudy
12:53 PM 70.0 °F 53.1 °F 55% 30.07 in 10.0 mi NNE 13.8 mph 23.0 mph N/A   Scattered Clouds
1:53 PM 71.1 °F 52.0 °F 51% 30.06 in 10.0 mi North 10.4 mph - N/A   Scattered Clouds
2:53 PM 71.1 °F 51.1 °F 49% 30.06 in 10.0 mi North 12.7 mph 21.9 mph N/A   Mostly Cloudy
3:53 PM 71.1 °F 51.1 °F 49% 30.06 in 10.0 mi NNE 10.4 mph 17.3 mph N/A   Scattered Clouds
4:53 PM 70.0 °F 51.1 °F 51% 30.04 in 10.0 mi NNE 10.4 mph - N/A   Mostly Cloudy
5:53 PM 70.0 °F 50.0 °F 49% 30.03 in 10.0 mi North 9.2 mph - N/A   Partly Cloudy
6:53 PM 68.0 °F 50.0 °F 52% 30.03 in 10.0 mi NE 8.1 mph - N/A   Clear
7:53 PM 64.0 °F 54.0 °F 70% 30.05 in 10.0 mi ENE 5.8 mph - N/A   Clear
8:53 PM 61.0 °F 53.1 °F 75% 30.06 in 10.0 mi ENE 4.6 mph - N/A   Clear
9:53 PM 55.9 °F 51.1 °F 84% 30.10 in 10.0 mi NNE 5.8 mph - N/A   Clear
10:53 PM 57.0 °F 51.1 °F 81% 30.11 in 10.0 mi NNE 5.8 mph - N/A   Clear
11:53 PM 53.1 °F 50.0 °F 89% 30.12 in 10.0 mi NW 4.6 mph - N/A   Clear